Tracking 34408 objects as of 14-Jun-2026
HD Live streaming from Space Station
objects crossing your sky now

DELTA 1 DEB

Track DELTA 1 DEB now!
10-day predictions


NORAD ID: 7137
Int'l Code: 1973-086DB
Perigee: 1,402.1 km
Apogee: 1,464.7 km
Inclination: 101.7 °
Period: 114.4 minutes
Semi major axis: 7804 km
RCS: 0.1063 m2 (medium)
Launch date: November 6, 1973
Source: United States (US)
Launch site: AIR FORCE WESTERN TEST RANGE (AFWTR)

Note: This is SATELLITE DEBRIS
Your satellite tracking list
Your tracking list is empty




NASA's NSSDC Master Catalog

Two Line Element Set (TLE):
1  7137U 73086DB  26164.90053847  .00000295  00000-0  19753-2 0  9990
2  7137 101.7405 150.6019 0040093 112.4415 304.4222 12.59187389406510
Source of the keplerian elements: AFSPC